Home   Weather   Nærbø   Past weeks

Flag for Norway Past Weather in Nærbø, Norway — Yesterday and Last 2 Weeks

Now
45 °F

Passing clouds.


Feels Like: 39 °F
Forecast: 46 / 49 °F
Wind: 12 mph from West

Location: Stavanger / Sola

Current Time: Dec 4, 2016 at 1:02:25 am

Latest Report: Dec 4, 2016 at 12:20 am


Visibility: N/A

Pressure: 30.27 "Hg

Humidity: 87%

Dew Point: 41 °F

Location of NærbøLocation

Past Weather in Nærbø — Graph

°F

Nærbø Temperature Yesterday

Maximum temperature yesterday: 45 °F (at 3:20 pm)
Minimum temperature yesterday: 25 °F (at 1:20 am)
Average temperature yesterday: 36 °F

High & Low Weather Summary for the Past Weeks

 TemperatureHumidityPressure
High50 °F (Nov 22, 12:20 pm)100% (Nov 23, 2:50 am)30.51 "Hg (Nov 23, 2:50 am)
Low25 °F (Nov 28, 4:50 am)61% (Nov 26, 3:50 pm)29.12 "Hg (Nov 18, 11:20 pm)
Average40 °F84%29.97 "Hg
* Reported Nov 18 11:20 pm — Dec 3 11:50 pm, Nærbø, Weather by CustomWeather, © 2016

Note: Actual official high and low records may vary slightly from our data, if they occured in-between our weather recording intervals... More about our weather records

Advertising

Nærbø Weather History for the Previous 24 Hours

Scroll right to see more
 ConditionsComfort  
Time TempWeatherWind HumidityBarometerVisibility
11:50 pm
Sat, Dec 3
45 °FPartly cloudy.9 mph87%30.24 "HgN/A
11:20 pm45 °FPartly cloudy.10 mph87%30.24 "HgN/A
10:50 pm45 °FPartly cloudy.12 mph87%30.24 "HgN/A
10:20 pm43 °FPartly cloudy.8 mph93%30.24 "HgN/A
9:50 pm41 °FPassing clouds.8 mph93%30.24 "HgN/A
9:20 pm41 °FPartly cloudy.1 mph93%30.24 "HgN/A
8:50 pm39 °FPartly cloudy.No wind93%30.24 "HgN/A
8:20 pm41 °FPassing clouds.2 mph93%30.24 "HgN/A
7:50 pm43 °FPassing clouds.5 mph93%30.24 "HgN/A
7:20 pm43 °FPartly cloudy.9 mph93%30.24 "HgN/A
6:50 pm45 °FPassing clouds.13 mph87%30.24 "HgN/A
6:20 pm45 °FPartly cloudy.13 mph87%30.24 "HgN/A
5:50 pm41 °FPartly cloudy.12 mph93%30.24 "HgN/A
5:20 pm41 °FPartly cloudy.6 mph93%30.24 "HgN/A
4:50 pm45 °FPartly cloudy.9 mph87%30.21 "HgN/A
4:20 pm45 °FPartly cloudy.13 mph87%30.21 "HgN/A
3:50 pm45 °FScattered showers. Partly cloudy.13 mph87%30.21 "HgN/A
3:20 pm45 °FPartly sunny.10 mph87%30.21 "HgN/A
2:50 pm39 °FPartly sunny.7 mph87%30.21 "HgN/A
2:20 pm37 °FPartly sunny.5 mph87%30.24 "HgN/A
1:50 pm36 °FPartly sunny.6 mph93%30.24 "HgN/A
1:20 pm36 °FDrizzle. Partly sunny.6 mph87%30.24 "HgN/A
12:50 pm36 °FDrizzle. Broken clouds.7 mph87%30.24 "HgN/A
12:20 pm34 °FBroken clouds.5 mph87%30.24 "HgN/A
11:50 am34 °FPartly sunny.5 mph87%30.24 "HgN/A
11:20 am32 °FPartly sunny.3 mph87%30.27 "HgN/A
10:50 am32 °FPartly sunny.3 mph80%30.27 "HgN/A
10:20 am30 °FScattered clouds.5 mph86%30.27 "HgN/A
9:50 am30 °FPartly sunny.8 mph86%30.24 "HgN/A
9:20 am28 °FPartly sunny.2 mph93%30.24 "HgN/A
8:50 am28 °FPassing clouds.2 mph86%30.24 "HgN/A
8:20 am27 °FPassing clouds.2 mph93%30.27 "HgN/A
7:50 am27 °FPassing clouds.2 mph93%30.27 "HgN/A
7:20 am25 °FPassing clouds.3 mph93%30.27 "HgN/A
6:50 am27 °FPassing clouds.5 mph93%30.27 "HgN/A
6:20 am27 °FPassing clouds.No wind93%30.27 "HgN/A
5:50 am27 °FPassing clouds.2 mph93%30.27 "HgN/A
4:50 am27 °FPassing clouds.2 mph93%30.27 "HgN/A
3:50 am27 °FPassing clouds.2 mph93%30.27 "HgN/A
2:50 am27 °FPassing clouds.No wind93%30.27 "HgN/A
1:50 am25 °FClear.2 mph93%30.27 "Hg10 mi
1:20 am25 °FClear.2 mph100%30.27 "Hg10 mi
Weather by CustomWeather, © 2016

See weather overviewHow to use our weather pages